BEE-1000 (66650 NORAD) Tracking and Keplerian Element Data

This shows tracking and keplerian element data for the satellite.

Feedback or suggestion? Click here.




ElementValue
Catalog66650
NameBEE-1000
Epoch Orbit341
Epoch Day353.52753957
Epoch Year2025
RAAN280.5907
Inclination97.7401
Eccentricity0.0010694
Argument of Perigee226.1332
Mean Anonmoly133.9004
Mean Motion14.91682536
Decay Rate9.73E-06
L11 66650U 25274A 25353.52753957 .00000973 00000-0 10224-3 0 9995
L22 66650 97.7401 280.5907 0010694 226.1332 133.9004 14.91682536 3416



Live tracking and technical data element details for BEE-1000 (NORAD 66650). BEE-1000 can be tracked NOW for your location showing map with azimuth and elevation plus other details from your city location.







IsCatalogInMostPopularTable: catalog: 66650, numindb: 22
Update: records affected: 1



GetName: 66650 BEE-1000

Hit Count: updated at: Sat, 11 Apr 2026 21:18:40 GMT